Home   Weather   Germany   Munich   Past weeks
Flag for Germany

Past Weather in Munich, Bavaria, Germany — Yesterday and Last 2 Weeks

Currently: 36 °F. Overcast. (Weather station: Oberpfaffenhofen, Germany). See more current weather

Past Weather in Munich — Graph

°F

Munich Temperature Yesterday

Maximum temperature yesterday: 41 °F (at 3:50 pm)
Minimum temperature yesterday: 32 °F (at 4:20 am)
Average temperature yesterday: 37 °F

High & Low Weather Summary for the Past Weeks

 TemperatureHumidityPressure
High82 °F (Apr 8, 2:50 pm)100% (Apr 10, 11:50 pm)30.54 "Hg (Apr 10, 11:50 pm)
Low32 °F (Apr 11, 4:50 am)20% (Apr 8, 3:20 pm)29.68 "Hg (Apr 15, 7:20 pm)
Average46 °F77%30.07 "Hg
* Reported Apr 8 1:20 pm — Apr 23 1:50 pm, Munich. Weather by CustomWeather, © 2024

Note: Actual official high and low records may vary slightly from our data, if they occured in-between our weather recording intervals... More about our weather records

Munich Weather History for the Previous 24 Hours

Scroll right to see more
 ConditionsComfort  
Time TempWeatherWind HumidityBarometerVisibility
1:50 pm
Tue, Apr 23
36 °FMostly cloudy.9 mph87%29.95 "HgN/A
1:20 pm36 °FOvercast.10 mph87%29.95 "HgN/A
12:50 pm36 °FLow clouds.12 mph87%29.95 "HgN/A
12:20 pm36 °FLight rain. Low clouds.10 mph87%29.95 "HgN/A
11:50 am36 °FDrizzle. Low clouds.13 mph87%29.95 "HgN/A
11:20 am36 °FLight rain. Partly sunny.13 mph93%29.95 "Hg5 mi
10:50 am36 °FLight rain. Low clouds.10 mph93%29.95 "Hg2 mi
10:20 am34 °FLight rain. Low clouds.12 mph100%29.95 "Hg2 mi
9:50 am34 °FLight snow. Low clouds.10 mph93%29.95 "Hg2 mi
9:20 am34 °FLight snow. Low clouds.10 mph93%29.95 "Hg2 mi
8:50 am34 °FLight snow. Low clouds.12 mph93%29.95 "Hg4 mi
8:20 am34 °FLight snow. Low clouds.12 mph93%29.95 "Hg3 mi
7:50 am34 °FDrizzle. Partly sunny.10 mph93%29.95 "HgN/A
7:20 am34 °FPartly sunny.10 mph93%29.95 "HgN/A
6:50 am32 °FLight rain. Partly sunny.9 mph100%29.95 "HgN/A
6:20 am32 °FLow clouds.10 mph100%29.95 "Hg3 mi
5:50 am32 °FMostly cloudy.9 mph100%29.95 "Hg3 mi
5:20 am32 °FOvercast.9 mph100%29.95 "Hg3 mi
4:50 am34 °FOvercast.10 mph93%29.95 "HgN/A
4:20 am34 °FOvercast.12 mph93%29.98 "HgN/A
3:50 am34 °FMostly cloudy.12 mph93%29.98 "Hg5 mi
2:50 am34 °FMostly cloudy.7 mph93%29.98 "HgN/A
2:20 am36 °FOvercast.8 mph87%29.98 "HgN/A
1:50 am36 °FMostly cloudy.12 mph81%29.98 "HgN/A
1:20 am36 °FOvercast.13 mph81%30.01 "HgN/A
12:50 am36 °FMostly cloudy.9 mph81%30.01 "HgN/A
12:20 am37 °FMostly cloudy.12 mph70%30.01 "HgN/A
11:50 pm
Mon, Apr 22
39 °FOvercast.9 mph65%30.01 "HgN/A
11:20 pm39 °FMostly cloudy.10 mph65%30.01 "HgN/A
10:50 pm39 °FOvercast.13 mph65%30.01 "HgN/A
10:20 pm39 °FOvercast.9 mph61%30.01 "HgN/A
9:50 pm39 °FMostly cloudy.7 mph65%30.01 "HgN/A
9:20 pm39 °FOvercast.7 mph65%30.01 "HgN/A
8:50 pm39 °FMostly cloudy.7 mph65%30.01 "HgN/A
8:20 pm39 °FPassing clouds.9 mph65%30.01 "HgN/A
7:50 pm41 °FPassing clouds.9 mph61%30.01 "HgN/A
7:20 pm41 °FPartly sunny.12 mph57%30.01 "HgN/A
6:50 pm41 °FPartly sunny.13 mph61%30.01 "HgN/A
6:20 pm41 °FPartly sunny.13 mph61%30.01 "HgN/A
5:50 pm41 °FScattered clouds.13 mph57%30.01 "HgN/A
5:20 pm41 °FBroken clouds.10 mph61%30.01 "HgN/A
4:50 pm41 °FScattered clouds.13 mph61%30.04 "HgN/A
4:20 pm41 °FOvercast.10 mph66%30.04 "HgN/A
3:50 pm41 °FBroken clouds.13 mph66%30.04 "HgN/A
Weather by CustomWeather, © 2024

See weather overview